x

9410840 - Santa Monica Pier (icac1) Weather Station

12:54 - Sun 19th Nov 2017 All times are PST. -8 hours from GMT.

  • Wind
    5mph, 6mph gusts
  • Sea Temp 63°f
  • Ar Temp 66°f
  • Sea Pressure 1015.5mb
  • 9410840 - Santa Monica Pier
  • 9410840 - Santa Monica Pier

More Historic Weather Station data

Upgrade to MSW Pro to gain access to the past 30 days of data for over 8000 Wavebouys and Weather Stations around the globe.

Join

Comparision Forecast

View Surf forecast
   
Dom 11/19 12:54 5 6 mph 1015.5mb 63f 66f
12:48 3 6 mph 1015.7mb 63f 66f
12:42 6 6 mph 1015.8mb 63f 64f
12:36 6 6 mph 1015.8mb 63f 64f
12:30 5 5 mph 1015.8mb 63f 65f
12:24 3 3 mph 1015.8mb 63f 65f
12:18 2 2 mph 1015.8mb 63f 65f
12:12 2 3 mph 1015.9mb 63f 65f
12:06 3 3 mph 1016.1mb 63f 65f
12:00 2 6 mph 1016.2mb 63f 67f
11:54 5 8 mph 1016.5mb 63f 65f
11:48 6 9 mph 1016.9mb 63f 64f
11:42 8 9 mph 1017.3mb 63f 63f
11:36 9 10 mph 1017.5mb 63f 63f
11:30 10 11 mph 1017.5mb 63f 63f
11:24 10 10 mph 1017.5mb 63f 63f
11:18 9 9 mph 1017.6mb 63f 64f
11:12 8 9 mph 1017.6mb 63f 64f
11:06 9 10 mph 1017.8mb 63f 64f
11:00 8 9 mph 1017.8mb 63f 63f
10:54 8 9 mph 1018mb 62f 63f
10:48 8 9 mph 1018.2mb 62f 64f
10:42 8 8 mph 1018.2mb 62f 64f
10:36 7 8 mph 1018.2mb 62f 63f
10:30 7 7 mph 1018.3mb 62f 64f
10:24 6 6 mph 1018.4mb 62f 64f
10:18 6 7 mph 1018.5mb 62f 64f
10:12 6 7 mph 1018.6mb 62f 64f
10:06 6 7 mph 1018.6mb 62f 64f
10:00 6 8 mph 1018.6mb 62f 64f
9:54 7 9 mph 1018.7mb 62f 64f
9:48 6 6 mph 1018.7mb 62f 66f
9:42 3 6 mph 1018.7mb 62f 68f
9:36 3 6 mph 1018.7mb 62f 66f
9:30 3 6 mph 1018.8mb 62f 67f
9:24 3 7 mph 1018.7mb 61f 68f
9:18 3 8 mph 1018.7mb 61f 70f
9:12 5 8 mph 1018.7mb 61f 69f
9:06 2 5 mph 1018.7mb 61f 69f
9:00 3 6 mph 1018.7mb 61f 68f
8:54 3 6 mph 1018.8mb 61f 67f
8:48 3 5 mph 1018.8mb 61f 67f
8:42 5 6 mph 1018.8mb 61f 66f
8:36 3 6 mph 1018.8mb 61f 66f
8:30 3 5 mph 1018.7mb 61f 66f
8:24 3 6 mph 1018.7mb 61f 65f
8:18 6 8 mph 1018.6mb 61f 65f
8:12 7 9 mph 1018.3mb 61f 65f
8:06 7 8 mph 1018.2mb 61f 64f
8:00 6 8 mph 1018.1mb 61f 64f
7:54 5 9 mph 1018mb 61f 64f
7:48 6 8 mph 1018mb 61f 64f
7:42 6 8 mph 1018mb 61f 65f
7:36 7 13 mph 1018mb 61f 65f
7:30 8 11 mph 1018mb 61f 65f
7:24 9 10 mph 1018mb 61f 65f
7:18 9 11 mph 1018.1mb - -
7:12 8 13 mph 1017.9mb 62f 65f
7:06 10 13 mph 1017.9mb 62f 65f
7:00 9 11 mph 1017.8mb 62f 65f
Sex 11/17 10:30 8 10 mph 1018.9mb 64f 64f
10:24 8 9 mph 1018.9mb 64f 64f
10:18 8 8 mph 1018.9mb 64f 64f
10:12 6 7 mph 1019mb 64f 64f
10:06 7 7 mph 1019.1mb 64f 64f
10:00 5 6 mph 1019mb 64f 65f
9:54 5 6 mph 1019.1mb 64f 64f
9:48 3 3 mph 1019.1mb 64f 65f
9:42 2 3 mph 1019.2mb 63f 64f
9:36 2 3 mph 1019.1mb 63f 64f
9:30 2 3 mph 1019mb 63f 65f
9:24 2 3 mph 1019mb 63f 64f
9:18 3 6 mph 1019mb 63f 64f
9:12 6 6 mph 1019mb 63f 64f
9:06 6 7 mph 1018.9mb 63f 64f
9:00 6 7 mph 1018.8mb 63f 63f
8:54 7 7 mph 1018.8mb 63f 64f
8:48 6 6 mph 1018.9mb 63f 64f
8:42 6 6 mph 1018.8mb 63f 63f
8:36 6 6 mph 1018.8mb 63f 64f
8:30 6 7 mph 1018.6mb 63f 64f
8:24 7 8 mph 1018.6mb 63f 64f
8:18 7 7 mph 1018.6mb 63f 64f
8:12 5 6 mph 1018.4mb 63f 64f
8:06 1 2 mph 1018.4mb 63f 64f
8:00 1 2 mph 1018.3mb 63f 63f
7:54  -  2 mph 1018.1mb 63f 63f
7:48 2 2 mph 1018.2mb 63f 63f
7:42  -  1 mph 1018.3mb 63f 63f
7:36 1 5 mph 1018.1mb 63f 63f
7:30 3 5 mph 1018.2mb 64f 63f
7:24 2 6 mph 1017.7mb 64f 63f
7:18 7 10 mph 1018.1mb 64f 63f
7:12 2 2 mph 1017.9mb 64f 64f
7:06  -  6 mph 1017.8mb 64f 64f
7:00 5 7 mph 1017.1mb 64f 64f
6:54 7 7 mph 1017mb 64f 64f
6:48 5 5 mph 1017.2mb 64f 64f
6:42 3 5 mph 1017.2mb 64f 64f
6:36 3 3 mph 1017.1mb 64f 63f
6:30 2 2 mph 1016.9mb 64f 63f
6:24  -  1 mph 1016.9mb 64f 64f
6:18  -  2 mph 1016.9mb 64f 64f
6:12 2 5 mph 1016.8mb 64f 64f
6:06 3 6 mph 1016.9mb 64f 64f
6:00 5 6 mph 1016.7mb 64f 64f
5:54 2 3 mph 1016.5mb 64f 64f
5:48 3 5 mph 1016.3mb 64f 64f
5:42 1 2 mph 1016.4mb 64f 64f
5:36 1 2 mph 1016.3mb 64f 64f
5:30 2 3 mph 1016.2mb 64f 64f
5:24 2 3 mph 1016.1mb 64f 64f
5:18 3 3 mph 1016.1mb 64f 64f
5:12 1 2 mph 1016.2mb 64f 64f
5:06 2 5 mph 1016.2mb 64f 64f
5:00 5 5 mph 1015.9mb 64f 63f
4:54 2 2 mph 1016.2mb 64f 64f
4:48 1 3 mph 1016.2mb 64f 64f
4:42 2 3 mph 1016.1mb 64f 63f
4:36 2 2 mph 1016.1mb 64f 64f
4:30  -  0 mph 1016.2mb 64f 63f
4:24  -  2 mph 1016.1mb 64f 64f
4:18 2 2 mph 1016.1mb 64f 64f
4:12  -  2 mph 1016.1mb 64f 64f
4:06 2 2 mph 1016.2mb 64f 64f
4:00 2 2 mph 1016.2mb 64f 64f
3:54 2 3 mph 1016.2mb 64f 64f
3:48 2 2 mph 1016.1mb 64f 64f
3:42  -  1 mph 1015.9mb 64f 64f
3:36 2 2 mph 1015.8mb 64f 64f
3:30 2 3 mph 1015.7mb 64f 64f
3:24 3 6 mph 1015.6mb 64f 64f
3:18 5 6 mph 1015.6mb 64f 65f
3:12 6 6 mph 1015.6mb 64f 65f
3:06 5 5 mph 1015.5mb 64f 65f
3:00 3 3 mph 1015.5mb 64f 65f
2:54 3 5 mph 1015.5mb 64f 65f
2:48  -  1 mph 1015.5mb 64f 64f
2:42 2 5 mph 1015.3mb 64f 65f
2:36 1 5 mph 1015.2mb 64f 65f
2:30 3 3 mph 1015.2mb 64f 65f
2:24 5 6 mph 1015.4mb 64f 65f
2:18 3 5 mph 1015.3mb 64f 64f
2:12 3 3 mph 1015.5mb 64f 64f
2:06 2 2 mph 1015.6mb 64f 64f
2:00 1 2 mph 1015.4mb 64f 64f
1:54  -  2 mph 1015.5mb 64f 64f
1:48 2 3 mph 1015.5mb 64f 64f
1:42 3 3 mph 1015.5mb 64f 64f
1:36 2 3 mph 1015.5mb 64f 64f
1:30 2 2 mph 1015.5mb 64f 63f
1:24  -  2 mph 1015.3mb 64f 63f
1:18 2 3 mph 1015.5mb 64f 63f
1:12 3 3 mph 1015.6mb 64f 63f
1:06 2 2 mph 1015.5mb 63f 62f
1:00  -  1 mph 1015.5mb 63f 63f
12:54 1 2 mph 1015.5mb 63f 63f
12:48 2 3 mph 1015.5mb 63f 63f
12:42 2 2 mph 1015.4mb 63f 64f
12:36 1 2 mph 1015.4mb 63f 64f
12:30 2 2 mph 1015.4mb 63f 64f
12:24 2 2 mph 1015.4mb 63f 64f
12:18 1 1 mph 1015.3mb 63f 64f
12:12 1 2 mph 1015.1mb 63f 64f
12:06 2 2 mph 1015mb 63f 64f
12:00  -  2 mph 1015.2mb 63f 64f
Qui 11/16 11:54  -  2 mph 1015.1mb 63f 64f
11:48 1 2 mph 1015.1mb 63f 64f
11:42 2 3 mph 1015mb 63f 64f
11:36 5 6 mph 1014.9mb 63f 64f
11:30 6 6 mph 1015mb 63f 64f
11:24 5 5 mph 1015mb 63f 64f
11:18 5 5 mph 1015mb 63f 64f
11:12 1 2 mph 1015mb 63f 64f
11:06 3 3 mph 1015.1mb 63f 64f
11:00 2 3 mph 1015.1mb 63f 64f
10:54 2 2 mph 1015.3mb 64f 64f
10:48 2 2 mph 1015.4mb 64f 64f
10:42 2 2 mph 1015.5mb 64f 64f
10:36 1 3 mph 1015.4mb 64f 64f
10:30 3 3 mph 1015.6mb 64f 64f
10:24 2 5 mph 1015.7mb 64f 64f
10:18 3 5 mph 1015.6mb 64f 64f
10:12 3 5 mph 1015.7mb 64f 64f
10:06 2 3 mph 1015.6mb 64f 64f
10:00 3 5 mph 1015.6mb 64f 64f
9:54 3 5 mph 1015.6mb 64f 64f
9:48 3 5 mph 1015.5mb 64f 64f
9:42 5 6 mph 1015.6mb 64f 64f
9:36 3 6 mph 1015.6mb 64f 64f
9:30 5 6 mph 1015.7mb 64f 64f
9:24 6 8 mph 1015.7mb 64f 64f
9:18 7 8 mph 1015.8mb 64f 64f
9:12 7 8 mph 1015.9mb 64f 65f
9:06 7 9 mph 1015.7mb 64f 65f
9:00 9 10 mph 1015.5mb 64f 65f
8:54 10 11 mph 1015.5mb 64f 66f
8:48 10 11 mph 1015.5mb 64f 66f
8:42 9 10 mph 1015.3mb 64f 67f
8:36 5 6 mph 1015.2mb 64f 68f
8:30 5 5 mph 1015.2mb 64f 69f
8:24 3 5 mph 1015.3mb 64f 69f
8:18 3 5 mph 1015.2mb 64f 68f
8:12 2 3 mph 1015.2mb 64f 68f
8:06 3 5 mph 1015.2mb 64f 69f
8:00 1 2 mph 1015.3mb 64f 69f
7:54  -  3 mph 1015.2mb 64f 70f
7:48 1 3 mph 1015.3mb 64f 69f
7:42 1 3 mph 1015mb 64f 70f
7:36 3 5 mph 1015.2mb 64f 70f
7:30  -  3 mph 1015.1mb 64f 71f
7:24 2 3 mph 1014.9mb 64f 71f
7:18 2 2 mph 1014.8mb 64f 71f
7:12 1 2 mph 1014.8mb 64f 71f
7:06  -  3 mph 1014.7mb 64f 71f
7:00 3 5 mph 1014.7mb 64f 71f
6:54 2 5 mph 1014.7mb 64f 71f
6:48 3 7 mph 1014.7mb 64f 71f
6:42 6 10 mph 1014.8mb 65f 71f
6:36 8 9 mph 1014.9mb 65f 69f
6:30 7 9 mph 1014.8mb 65f 68f
6:24 6 8 mph 1014.7mb 65f 69f
6:18 6 7 mph 1014.5mb 65f 68f
6:12 3 6 mph 1014.3mb 65f 69f
6:06 7 13 mph 1014.5mb 65f 72f
6:00 3 7 mph 1014.6mb 65f 69f
5:54 2 6 mph 1014.6mb 65f 69f
5:48 3 6 mph 1014.5mb 65f 68f
5:42 2 6 mph 1014.4mb 65f 66f
5:36 5 8 mph 1014.4mb 65f 66f
5:30 7 11 mph 1014.4mb 65f 66f
5:24 10 11 mph 1014.5mb 65f 66f
5:18 8 14 mph 1014.5mb 65f 66f
5:12 13 15 mph 1014.4mb 65f 66f
5:06 11 13 mph 1014.3mb 65f 66f
5:00 8 9 mph 1014.2mb 65f 66f
4:54 6 8 mph 1014.2mb 65f 66f
4:48 8 9 mph 1014mb 65f 66f
4:42 8 11 mph 1014.1mb 65f 67f
4:36 8 11 mph 1014mb 65f 66f
4:30 6 8 mph 1014mb 65f 65f
4:24 6 8 mph 1013.9mb 65f 65f
4:18 5 7 mph 1013.7mb 65f 65f
4:12 7 9 mph 1013.9mb 65f 66f
4:06 8 9 mph 1014mb 65f 66f
4:00 7 8 mph 1014mb 65f 66f
3:54 6 8 mph 1014mb 65f 66f
3:48 3 5 mph 1013.8mb 65f 67f
3:42 2 3 mph 1013.7mb 65f 67f
3:36  -  3 mph 1013.5mb 65f 68f
3:30 1 3 mph 1013.6mb 65f 67f
3:24 1 2 mph 1013.9mb 65f 67f
3:18 1 5 mph 1013.7mb 65f 66f
3:12 3 5 mph 1013.8mb 65f 65f
3:06 1 3 mph 1013.7mb 65f 66f
3:00 2 2 mph 1013.8mb 65f 66f
2:54 2 2 mph 1013.7mb 65f 66f
2:48 2 2 mph 1013.9mb 65f 67f
2:42 1 3 mph 1013.9mb 65f 67f
2:36 2 3 mph 1013.9mb 65f 66f
2:30 2 3 mph 1014mb 65f 66f
2:24 3 3 mph 1014mb 65f 66f
2:18 3 5 mph 1013.9mb 65f 66f
2:12 3 3 mph 1013.8mb 65f 66f
2:06 2 3 mph 1013.8mb 65f 66f
2:00 2 5 mph 1013.8mb 65f 66f
1:54 5 6 mph 1014.1mb 64f 66f
1:48 6 6 mph 1014.2mb 64f 66f
1:42 6 6 mph 1014.2mb 64f 66f
1:36 5 6 mph 1014.3mb 64f 66f
1:30 5 6 mph 1014.2mb 64f 66f
1:24 5 6 mph 1014.2mb 64f 66f
1:18 6 6 mph 1014.3mb 64f 67f
1:12 3 5 mph 1014.4mb 64f 67f
1:06 2 3 mph 1014.4mb 64f 68f
1:00 1 2 mph 1014.3mb 64f 69f
12:54  -  2 mph 1014.4mb 64f 69f
12:48 2 3 mph 1014.5mb 64f 68f
12:42 1 3 mph 1014.5mb 64f 68f
12:36 1 3 mph 1014.6mb 64f 68f
12:30 2 3 mph 1014.7mb 64f 68f
12:24 2 3 mph 1014.8mb 64f 67f
12:18 3 3 mph 1014.9mb 64f 66f
12:12 3 5 mph 1015mb 64f 66f
12:06 5 6 mph 1015.1mb 64f 66f
12:00 6 7 mph 1015.1mb 64f 66f
11:54 6 7 mph 1015.2mb 64f 66f
11:48 6 7 mph 1015.2mb 64f 66f
11:42 6 6 mph 1015.2mb 64f 66f
11:36 3 5 mph 1015.2mb 64f 66f
11:30 3 3 mph 1015.3mb 64f 66f
11:24 3 5 mph 1015.2mb 64f 67f
11:18 5 5 mph 1015.3mb 64f 67f
11:12 3 5 mph 1015.3mb 64f 67f
11:06 3 5 mph 1015.3mb 64f 67f
11:00 3 5 mph 1015.3mb 64f 67f
10:54 5 5 mph 1015.4mb 64f 67f
10:48 3 5 mph 1015.4mb 64f 67f
10:42 3 3 mph 1015.4mb 64f 67f
10:36  -  2 mph 1015.4mb 64f 67f
10:30 2 2 mph 1015.5mb 64f 67f
10:24 2 2 mph 1015.6mb 64f 67f
10:18 2 2 mph 1015.7mb 64f 67f
10:12 2 2 mph 1015.7mb 64f 67f
10:06 1 2 mph 1015.7mb 64f 67f
10:00 1 1 mph 1015.7mb 64f 67f
9:54 1 2 mph 1015.6mb 64f 66f
9:48 2 2 mph 1015.6mb 64f 66f
9:42 2 2 mph 1015.6mb 64f 67f
9:36 2 2 mph 1015.6mb 64f 68f
9:30 1 2 mph 1015.6mb 64f 67f
9:24  -  1 mph 1015.5mb 64f 68f
9:18 1 2 mph 1015.4mb 64f 67f
9:12  -  1 mph 1015.4mb 64f 67f
9:06  -  2 mph 1015.4mb 64f 67f
9:00 1 2 mph 1015.4mb 64f 67f
8:54 2 5 mph 1015.4mb 64f 66f
8:48 3 5 mph 1015.4mb 64f 65f
8:42 3 3 mph 1015.3mb 64f 65f
8:36 2 3 mph 1015.3mb 64f 64f
8:30 2 3 mph 1015.5mb 64f 65f
8:24 2 5 mph 1015.5mb 64f 64f
8:18 3 5 mph 1015.5mb 64f 64f
8:12 3 3 mph 1015.3mb 64f 64f
8:06 3 3 mph 1015.2mb 64f 64f
8:00 3 5 mph 1015.1mb 64f 64f
7:54 3 5 mph 1015.1mb 64f 64f
7:48 2 2 mph 1014.9mb 64f 64f
7:42 1 2 mph 1014.9mb 64f 64f
7:36  -  2 mph 1014.9mb 64f 64f
7:30 2 3 mph - 64f -
7:24 3 3 mph - 64f 64f
7:18 2 2 mph 1015mb 64f 64f
7:12 1 2 mph 1014.8mb 64f 64f
7:06 2 2 mph 1014.7mb 64f 64f
7:00 2 3 mph 1014.6mb 64f 64f
6:54 2 3 mph 1014.7mb 64f 64f
6:48 3 5 mph 1014.6mb 64f 64f
6:42 5 6 mph 1014.5mb 64f 63f
6:36 5 6 mph 1014.5mb 64f 63f
6:30 6 6 mph 1014.4mb 64f 63f
6:24 6 7 mph 1014.5mb 64f 63f
6:18 6 7 mph 1014.4mb 64f 63f
6:12 6 7 mph 1014.5mb 64f 63f
6:06 6 7 mph 1014.5mb 64f 63f
6:00 5 7 mph 1014.4mb 64f 63f
5:54 7 8 mph 1014.4mb 64f 63f
5:48 6 6 mph 1014.3mb 64f 63f
5:42 6 6 mph 1014.3mb 64f 63f
5:36 6 6 mph 1014.3mb 64f 63f
5:30 5 5 mph 1014.4mb 64f 62f
5:24 3 5 mph 1014.2mb 64f 63f
5:18 1 1 mph 1014mb 64f 63f
5:12  -  2 mph 1014mb 64f 63f
5:06 2 3 mph 1014.1mb 64f 63f
5:00 3 5 mph 1013.9mb 64f 62f
4:54 2 3 mph 1014.1mb 64f 62f
4:48 1 2 mph 1013.9mb 64f 62f
4:42 2 3 mph 1014mb 64f 63f
4:36 2 3 mph 1013.9mb 64f 63f
4:30 5 6 mph 1013.9mb 64f 63f
4:24 1 2 mph 1013.9mb 64f 62f
4:18  -  1 mph 1013.9mb 64f 62f
4:12  -  2 mph 1013.9mb 64f 63f
4:06 2 2 mph 1013.8mb 64f 62f
4:00  -  3 mph 1013.8mb 64f 62f
3:54 3 5 mph 1013.7mb 64f 62f
3:48 3 5 mph 1013.6mb 64f 62f
3:42 5 6 mph 1013.6mb 64f 62f
3:36 3 6 mph 1013.6mb 64f 62f
3:30 3 6 mph 1013.6mb 64f 62f
3:24 5 6 mph 1013.6mb 64f 62f
3:18 5 6 mph 1013.8mb 64f 62f
3:12 2 2 mph 1013.9mb 64f 62f
3:06 2 3 mph 1013.9mb 64f 63f
3:00 3 3 mph 1014mb 64f 63f
2:54 3 5 mph 1014mb 64f 64f
2:48 3 5 mph 1014.1mb 64f 64f
2:42 5 6 mph 1014.2mb 64f 63f
2:36 6 6 mph 1014.2mb 64f 64f
2:30 5 6 mph 1014.3mb 64f 64f
2:24 6 6 mph 1014.4mb 64f 64f
2:18 6 6 mph 1014.5mb 64f 64f
2:12 5 6 mph 1014.5mb 64f 64f
2:06 3 8 mph 1014.5mb 64f 64f
2:00 7 9 mph 1014.5mb 64f 65f
1:54 7 8 mph 1014.6mb 64f 65f
1:48 6 8 mph 1014.6mb 64f 65f
1:42 6 7 mph 1014.7mb 64f 65f
1:36 3 6 mph 1014.6mb 64f 65f
1:30 3 5 mph 1014.6mb 64f 65f
1:24 3 5 mph 1014.5mb 64f 65f
1:18 3 7 mph 1014.5mb 64f 65f
1:12 5 8 mph 1014.5mb 64f 66f
1:06 6 9 mph 1014.5mb 64f 66f
1:00 7 9 mph 1014.5mb 64f 66f
12:54 7 10 mph 1014.6mb 64f 66f
12:48 8 10 mph 1014.6mb 64f 66f
12:42 9 10 mph 1014.5mb 64f 65f
12:36 9 10 mph 1014.5mb 64f 65f
12:30 9 13 mph 1014.6mb 64f 65f
12:24 9 11 mph 1014.6mb 64f 65f
12:18 8 10 mph 1014.7mb 64f 65f
12:12 7 11 mph 1014.8mb 64f 64f
12:06 7 11 mph 1014.9mb 64f 64f
12:00 8 10 mph 1014.9mb 64f 64f
Qua 11/15 11:54 7 10 mph 1015mb 64f 63f
11:48 7 9 mph 1015mb 64f 63f
11:42 8 9 mph 1015.1mb 64f 62f
11:36 5 6 mph 1015.2mb 64f 62f
11:30 3 5 mph 1015.4mb 64f 62f
11:24 2 3 mph 1015.6mb 64f 62f
11:18 2 5 mph 1015.4mb 64f 62f
11:12 5 6 mph 1015.3mb 64f 62f
11:06 2 3 mph 1015.4mb 65f 62f
11:00 2 3 mph 1015.3mb 65f 62f
10:54 3 6 mph 1015.3mb 65f 62f
10:48 3 5 mph 1015.3mb 65f 62f
10:42 3 3 mph 1015.3mb 65f 63f
10:36 1 2 mph 1015.3mb 65f 63f
10:30  -  2 mph 1015.4mb 65f 63f
10:24 1 2 mph 1015.4mb 65f 63f
10:18 1 2 mph 1015.4mb 65f 63f
10:12 2 2 mph 1015.3mb 65f 62f
10:06  -  1 mph 1015.3mb 65f 62f
10:00  -  1 mph 1015.3mb 65f 62f